Flag for France Weather past 2 weeks in Marigot, Saint Martin, France

Now
81 °F

Passing clouds.


Feels Like: 85 °F
Forecast: 81 / 86 °F
Wind: 7 mph from Southeast

Location: Juliana Airport - Saint Maarten

Current Time: Jul 31, 2014 at 4:26:50 AM

Latest Report: Jul 31, 2014 at 3:00 AM


Visibility: N/A

Pressure: 30.01 "Hg

Humidity: 79%

Dew point: 73 °F

Location of MarigotLocation

Historic Weather in Marigot — Graph

°F

Marigot temperature yesterday

Maximum temperature yesterday: 84 °F (at 10:00 AM)
Minimum temperature yesterday: 81 °F (at 1:00 AM)
Average temperature yesterday: 82 °F

Past Weeks' High & Low Weather Summary

 TemperatureHumidityPressure
High88 °F (Jul 20, 2:00 PM)89% (Jul 18, 10:00 PM)30.12 "Hg (Jul 18, 10:00 PM)
Low77 °F (Jul 18, 8:00 AM)59% (Jul 20, 2:00 PM)29.98 "Hg (Jul 30, 5:00 PM)
Average83 °F71%30.06 "Hg
* Reported Jul 16 3:00 AM — Jul 31 3:00 AM, Marigot, Weather by CustomWeather, © 2014

Note: Actual official high and low records may vary slightly from our data, if they occured in-between our weather recording intervals... More about our weather records

Advertising

Marigot weather history for previous 24 hours

 ConditionsComfort  
Time TempWeatherWind HumidityBarometerVisibility
3:00 AM
Jul 31
81 °FPassing clouds.7 mph79%30.01 "HgN/A
2:00 AM81 °FPassing clouds.7 mph79%30.01 "HgN/A
1:00 AM81 °FPassing clouds.8 mph79%30.01 "HgN/A
12:00 AM81 °FPassing clouds.9 mph79%30.04 "HgN/A
10:00 PM
Jul 30
81 °FPassing clouds.6 mph84%30.04 "HgN/A
9:00 PM82 °FPassing clouds.7 mph79%30.04 "HgN/A
8:00 PM81 °FPassing clouds.7 mph84%30.04 "HgN/A
7:00 PM81 °FPartly cloudy.6 mph84%30.01 "HgN/A
6:00 PM81 °FSprinkles. Partly sunny.8 mph79%30.01 "Hg4 mi
5:00 PM84 °FScattered clouds.10 mph70%29.98 "HgN/A
4:00 PM84 °FPartly sunny.14 mph70%30.01 "HgN/A
3:00 PM84 °FBroken clouds.12 mph74%30.01 "HgN/A
2:00 PM84 °FSprinkles. Broken clouds.12 mph74%30.01 "Hg4 mi
1:00 PM82 °FSprinkles. Scattered clouds.16 mph79%30.04 "HgN/A
12:00 PM84 °FSprinkles. Scattered clouds.10 mph70%30.04 "HgN/A
11:00 AM84 °FPassing clouds.13 mph70%30.04 "HgN/A
10:00 AM84 °FScattered clouds.13 mph70%30.07 "HgN/A
9:00 AM82 °FScattered clouds.12 mph74%30.07 "HgN/A
8:00 AM82 °FScattered clouds.8 mph74%30.04 "HgN/A
7:00 AM82 °FPassing clouds.8 mph70%30.04 "HgN/A
6:00 AM81 °FPassing clouds.7 mph74%30.04 "HgN/A
5:00 AM81 °FPassing clouds.7 mph74%30.04 "HgN/A
4:00 AM81 °FPassing clouds.7 mph74%30.01 "HgN/A
Weather by CustomWeather, © 2014

See weather overviewHow to use our weather pages